Overview Statistics Trail Chart Weather Telemetry Raw packets
 

This is the latest recevied weather packets stored in our database for station/object KC1BRV. If no packets are shown the sender has not sent any weather packets the latest 10 day(s).

<< 12 13 14 15 16 17 18 >>
Time Temp. Humidity Pressure Rain* Wind** Luminosity Snow
1788534712 26.11° C 67% 1010.9 hPa 0 mm - 107 W/m² -
1788534408 26.11° C 66% 1011 hPa 0 mm - 145 W/m² -
1788534109 26.11° C 65% 1011 hPa 0 mm - 103 W/m² -
1788533807 26.67° C 64% 1011 hPa 0 mm - 399 W/m² -
1788533502 26.11° C 66% 1011 hPa 0 mm - 590 W/m² -
1788533198 26.11° C 66% 1010.9 hPa 0 mm - 584 W/m² -
1788532894 25.56° C 67% 1010.9 hPa 0 mm - 557 W/m² -
1788532589 25.56° C 65% 1010.8 hPa 0 mm - 546 W/m² -
1788532286 25.56° C 66% 1011.1 hPa 0 mm - 537 W/m² -
1788531982 25.56° C 68% 1011.1 hPa 0 mm - 531 W/m² -
1788531678 25.56° C 70% 1011 hPa 0 mm - 509 W/m² -
1788531372 25.56° C 70% 1011 hPa 0 mm - 69 W/m² -
1788531069 25° C 70% 1010.9 hPa 0 mm - 43 W/m² -
1788530764 25° C 75% 1010.9 hPa 0 mm - 47 W/m² -
1788530463 25° C 73% 1011.1 hPa 0 mm - 58 W/m² -
1788530163 25° C 76% 1011.3 hPa 0 mm - 49 W/m² -
1788529859 25° C 77% 1011 hPa 0 mm - 72 W/m² -
1788529555 24.44° C 78% 1011.2 hPa 0 mm - 112 W/m² -
1788529248 24.44° C 77% 1011.4 hPa 0 mm - 160 W/m² -
1788528943 24.44° C 78% 1011.2 hPa 0 mm - 225 W/m² -
1788528640 24.44° C 79% 1011.3 hPa 0 mm - 59 W/m² -
1788528339 23.89° C 80% 1011.4 hPa 0 mm - 150 W/m² -
1788528039 23.89° C 81% 1011.2 hPa 0 mm - 143 W/m² -
1788527753 23.89° C 82% 1011.2 hPa 0 mm - 184 W/m² -
1788527435 23.89° C 82% 1011.3 hPa 0 mm - 73 W/m² -

* Rain latest hour (hover to see other rain measurements)
** Current wind speed in m/s (hover to see current wind gust speed)